Regional Weather Roundup
Issued by NWS

Home | Current Version | Previous Version | Graphics & Text | Print | Product List | Glossary On
Versions: 1 2 3 4 5 6 7 8 9 10 11 12 13 14 15 16 17 18 19 20 21 22 23 24 25 26 27 28 29 30 31 32 33 34 35 36 37 38 39 40 41 42 43 44 45 46 47 48 49 50
000
ASUS43 KLSX 191859
RWRMO

WEATHER SUMMARY FOR MISSOURI
NATIONAL WEATHER SERVICE SPRINGFIELD MO
200 PM CDT SUN APR 19 2015

NOTE: "FAIR" INDICATES FEW OR NO CLOUDS BELOW 12,000 FEET WITH NO
       SIGNIFICANT WEATHER AND/OR OBSTRUCTIONS TO VISIBILITY.
       CURRENT SKY AND/OR WEATHER CONDITIONS ARE NOT AVAILABLE FOR
       CHILLICOTHE AND FARMINGTON.

MOZ001>031-035>038-043-044-053-054-192000-
...NORTHERN AND WESTERN MISSOURI...

CITY           SKY/WX    TMP DP  RH WIND       PRES   REMARKS
KANSAS CTY INT CLOUDY    65  54  67 NW14G22   29.64F
KANSAS C DTWN  PTSUNNY   68  52  56 NW15      29.63F
LEE`S SUMMIT   PTSUNNY   67  53  61 W10G17    29.64F
ST JOSEPH      CLOUDY    59  54  83 NW21      29.66S
CHILLICOTHE      N/A     66  58  75 W7        29.60F
KIRKSVILLE     CLOUDY    67  58  72 W18G24    29.58F

$$
MOZ066>068-077>081-088>096-101>105-192000-
...SOUTHWEST MISSOURI...

CITY           SKY/WX    TMP DP  RH WIND       PRES   REMARKS
SPRINGFIELD    PTSUNNY   67  52  58 NW15G23   29.67F
JOPLIN         PTSUNNY   63  52  67 W22       29.73R

$$
MOZ032>034-039>042-045>050-055>058-069>072-192000-
...CENTRAL MISSOURI...

CITY           SKY/WX    TMP DP  RH WIND       PRES   REMARKS
COLUMBIA       CLOUDY    66  60  81 W8        29.60F
JEFFERSON CITY CLOUDY    67  60  78 NW6       29.59F
ROLLA          CLOUDY    63  59  87 W8        29.59F
SEDALIA        CLOUDY    65  56  72 W16       29.64F
OSAGE BEACH    CLOUDY    66  55  68 W12       29.62F

$$
MOZ051-052-059>065-192000-
...EAST CENTRAL MISSOURI...

CITY           SKY/WX    TMP DP  RH WIND       PRES   REMARKS
ST LOUIS INTL  CLOUDY    65  59  81 CALM      29.55F
SPIRIT OF STL  LGT RAIN  65  59  81 W13G18    29.54F
ST CHARLES     LGT RAIN  63  59  87 NE5       29.54F

$$
MOZ072>076-082>087-097>100-106>115-192000-
...SOUTH CENTRAL AND SOUTHEAST MISSOURI...

CITY           SKY/WX    TMP DP  RH WIND       PRES   REMARKS
CAPE GIRARDEAU PTSUNNY   68  66  93 SW9       29.52F
FARMINGTON     CLOUDY    63  57  82 NW10G18   29.59F
POPLAR BLUFF   CLOUDY    69  60  73 W13       29.57S
WEST PLAINS    TSTM      62  55  77 VRB6G18   29.64S

$$



USA.gov is the U.S. government's official web portal to all federal, state and local government web resources and services.